B. Everett Jordan Lake Weather Center

Moon Phase Calendar



B. Everett Jordan Lake Water Level
Online Cameras

 


      

Current Conditions in Fearrington Village
4/20/2024 6:26:02 PM

74°F
Feels Like 74
Clouds
Humidity
61%
Pressure
29.97"
Wind
10.5 mph (N)
Dew Point
60°F
UV Index
1/10 (Low)
Visibility
6 mi

Hourly Forecast

Date & Time Sat, Apr 20
6:00 PM
Sat, Apr 20
7:00 PM
Sat, Apr 20
8:00 PM
Sat, Apr 20
9:00 PM
Sat, Apr 20
10:00 PM
Sat, Apr 20
11:00 PM
Sun, Apr 21
12:00 AM
Sun, Apr 21
1:00 AM
Sun, Apr 21
2:00 AM
Sun, Apr 21
3:00 AM
Sun, Apr 21
4:00 AM
Sun, Apr 21
5:00 AM
Sun, Apr 21
6:00 AM
Sun, Apr 21
7:00 AM
Sun, Apr 21
8:00 AM
Sun, Apr 21
9:00 AM
Sun, Apr 21
10:00 AM
Sun, Apr 21
11:00 AM
Sun, Apr 21
12:00 PM
Sun, Apr 21
1:00 PM
Sun, Apr 21
2:00 PM
Sun, Apr 21
3:00 PM
Sun, Apr 21
4:00 PM
Sun, Apr 21
5:00 PM
Sun, Apr 21
6:00 PM
Sun, Apr 21
7:00 PM
Sun, Apr 21
8:00 PM
Sun, Apr 21
9:00 PM
Sun, Apr 21
10:00 PM
Sun, Apr 21
11:00 PM
Mon, Apr 22
12:00 AM
Mon, Apr 22
1:00 AM
Mon, Apr 22
2:00 AM
Mon, Apr 22
3:00 AM
Mon, Apr 22
4:00 AM
Mon, Apr 22
5:00 AM
Mon, Apr 22
6:00 AM
Mon, Apr 22
7:00 AM
Mon, Apr 22
8:00 AM
Mon, Apr 22
9:00 AM
Mon, Apr 22
10:00 AM
Mon, Apr 22
11:00 AM
Mon, Apr 22
12:00 PM
Mon, Apr 22
1:00 PM
Mon, Apr 22
2:00 PM
Mon, Apr 22
3:00 PM
Mon, Apr 22
4:00 PM
Mon, Apr 22
5:00 PM
Condition
Clouds

Clouds

Clouds

Clouds

Clouds

Clouds

Clouds

Clouds

Clouds

Clouds

Clouds

Clouds

Clouds

Clouds

Rain

Rain

Rain

Rain

Rain

Rain

Rain

Rain

Rain

Rain

Rain

Clouds

Clouds

Clouds

Clouds

Clouds

Clouds

Clouds

Clouds

Clouds

Clouds

Clouds

Clouds

Clouds

Clouds

Clouds

Clouds

Clouds

Clouds

Clouds

Clouds

Clouds

Clouds

Clouds
Temperature 74°F72°F68°F66°F64°F61°F61°F59°F58°F57°F57°F56°F55°F54°F50°F47°F46°F47°F47°F47°F47°F47°F47°F46°F46°F47°F47°F46°F44°F43°F42°F42°F42°F42°F42°F43°F42°F44°F46°F49°F52°F56°F58°F60°F62°F63°F64°F64°F
Feels Like 74°F72°F68°F65°F63°F60°F59°F58°F56°F55°F55°F54°F52°F51°F48°F43°F42°F43°F43°F43°F43°F44°F44°F44°F44°F46°F47°F46°F44°F43°F42°F40°F40°F40°F40°F42°F40°F44°F43°F46°F50°F54°F55°F58°F60°F61°F61°F61°F
Cloudiness 58%58%56%75%85%95%97%97%98%100%100%100%100%100%100%100%100%100%100%100%100%100%100%100%100%100%100%100%98%68%51%43%38%98%97%98%97%98%98%79%90%93%95%94%87%75%40%28%
Visibility 6 mi6 mi6 mi6 mi6 mi6 mi6 mi6 mi6 mi6 mi6 mi6 mi6 mi6 mi6 mi4 mi5 mi5 mi4 mi4 mi6 mi5 mi4 mi5 mi6 mi6 mi6 mi6 mi6 mi6 mi6 mi6 mi6 mi6 mi6 mi6 mi6 mi6 mi6 mi6 mi6 mi6 mi6 mi6 mi6 mi6 mi6 mi6 mi
Precipitation 78%72%84%0%0%0%0%0%0%0%0%0%0%0%20%100%100%100%100%100%100%100%100%100%100%80%80%0%0%0%0%0%0%0%0%0%0%0%0%0%0%0%0%0%0%0%0%0%
Humidity 61%62%65%64%65%65%63%58%55%54%55%55%55%59%74%93%95%96%97%97%96%95%96%96%95%93%94%95%97%97%97%97%97%97%97%96%97%95%91%81%67%50%44%40%37%35%35%36%
Dew Point 60°F58°F56°F53°F52°F49°F48°F44°F42°F41°F40°F39°F39°F39°F42°F45°F45°F45°F45°F46°F46°F45°F45°F45°F44°F44°F45°F45°F43°F42°F41°F41°F40°F41°F41°F42°F41°F42°F43°F43°F41°F37°F36°F36°F35°F35°F35°F36°F
Pressure 29.97"29.97"29.97"30"30.03"30.03"30.06"30.06"30.03"30.03"30.03"30.03"30.03"30.03"30.06"30.09"30.09"30.09"30.09"30.06"30.03"30.03"30.03"30.03"30.03"30.03"30.03"30.06"30.09"30.09"30.09"30.09"30.09"30.09"30.09"30.09"30.09"30.12"30.15"30.15"30.15"30.15"30.15"30.12"30.12"30.09"30.09"30.09"
Wind Speed 10.5 mph8.3 mph2.6 mph3.8 mph3.2 mph4.7 mph4.7 mph6.4 mph7.3 mph8.8 mph8.2 mph8.8 mph8.4 mph8 mph7.8 mph8.4 mph8.4 mph7.8 mph8.4 mph7.8 mph8.1 mph6.3 mph6.2 mph5.5 mph4.3 mph3.2 mph1.8 mph2.3 mph2.4 mph1.8 mph2 mph3.5 mph3.5 mph3.4 mph3.4 mph3.4 mph3.9 mph2.6 mph4.9 mph6.8 mph7.4 mph7.1 mph6.9 mph6 mph6 mph6 mph6.4 mph7 mph
Wind
Direction
351°
N
346°
NNW
346°
NNW

N
13°
NNE
359°
N
350°
N
354°
N
354°
N

N
16°
NNE
23°
NNE
27°
NNE
26°
NNE
10°
N
358°
N
10°
N

N
10°
N

N
24°
NNE
15°
NNE
358°
N
355°
N
22°
NNE
34°
NE
67°
ENE
324°
NW
296°
WNW

N

N

N
359°
N
344°
NNW
335°
NNW
343°
NNW

N
349°
N

N
15°
NNE
25°
NNE
34°
NE
36°
NE
40°
NE
34°
NE
14°
NNE
358°
N
354°
N

Daily Forecast

Date High Low Precip. Humidity
Today
Apr 20

Rain
76 °F
61 °F
100%
58%
Sunday
Apr 21

Rain
61 °F
43 °F
100%
97%
Monday
Apr 22

Clouds
64 °F
42 °F
0%
40%
Tuesday
Apr 23

Clear
71 °F
42 °F
0%
35%
Wednesday
Apr 24

Clouds
74 °F
51 °F
0%
44%
Thursday
Apr 25

Clouds
64 °F
43 °F
0%
23%
Friday
Apr 26

Clouds
66 °F
42 °F
0%
33%
Saturday
Apr 27

Rain
59 °F
52 °F
100%
99%
Sunday
Apr 28

Rain
68 °F
59 °F
49%
95%
Monday
Apr 29

Clear
89 °F
62 °F
0%
45%
Tuesday
Apr 30

Rain
87 °F
67 °F
100%
48%
Wednesday
May 1

Rain
81 °F
65 °F
100%
72%
Thursday
May 2

Rain
75 °F
64 °F
100%
93%
Friday
May 3

Rain
64 °F
57 °F
100%
89%
Saturday
May 4

Clouds
72 °F
55 °F
0%
56%
Sunday
May 5

Rain
68 °F
56 °F
100%
79%

Temperature 8-14 Day Outlook



Precipitation 8-14 Day Outlook




Quick Links
B. Everett Jordan Lake News
B. Everett Jordan Lake Photos
B. Everett Jordan Lake Videos




About Us
Contact Us
Site Map
Search Site
Advertise With Us
   
EverettJordan.USLakes.info
THE B. EVERETT JORDAN LAKE WEBSITE

Copyright 2024, Lakes Online
Privacy    |    Legal